| time (UTC) | temp F | wind direction | speed MPH | gust MPH | rain 1hr in | rain 24hr in | rain mn in | humidity % | barometer mb |
| 20260507095133 | 37 | 258 | 1.0 | 1.0 | 0.00 | 0.00 | 0.00 | 92 | 1012.2 |
| 20260507094629 | 37 | 259 | 0.0 | 1.0 | 0.00 | 0.00 | 0.00 | 92 | 1012.2 |
| 20260507094126 | 37 | 244 | 0.0 | 0.0 | 0.00 | 0.00 | 0.00 | 91 | 1012.1 |
| 20260507093623 | 38 | 240 | 0.0 | 0.0 | 0.00 | 0.00 | 0.00 | 90 | 1012.0 |
| 20260507093123 | 39 | 229 | 0.0 | 0.0 | 0.00 | 0.00 | 0.00 | 88 | 1012.0 |
| 20260507092618 | 38 | 269 | 1.0 | 1.0 | 0.00 | 0.00 | 0.00 | 90 | 1012.1 |
| 20260507092115 | 38 | 253 | 0.0 | 0.0 | 0.00 | 0.00 | 0.00 | 90 | 1012.1 |
| 20260507091612 | 39 | 229 | 0.0 | 0.0 | 0.00 | 0.00 | 0.00 | 89 | 1012.2 |
| 20260507091108 | 39 | 240 | 0.0 | 0.0 | 0.00 | 0.00 | 0.00 | 88 | 1012.2 |
| 20260507090604 | 40 | 247 | 0.0 | 0.0 | 0.00 | 0.00 | 0.00 | 87 | 1012.1 |
| 20260507090101 | 41 | 286 | 2.0 | 2.0 | 0.00 | 0.00 | 0.00 | 85 | 1012.0 |
| 20260507085558 | 42 | 244 | 0.0 | 0.0 | 0.00 | 0.00 | 0.00 | 83 | 1012.1 |
| 20260507085054 | 41 | 210 | 1.0 | 1.0 | 0.00 | 0.00 | 0.00 | 82 | 1011.8 |
| 20260507084551 | 41 | 244 | 0.0 | 0.0 | 0.00 | 0.00 | 0.00 | 84 | 1011.9 |
| 20260507084048 | 41 | 243 | 0.0 | 0.0 | 0.00 | 0.00 | 0.00 | 83 | 1012.0 |
| 20260507083544 | 42 | 236 | 0.0 | 0.0 | 0.00 | 0.00 | 0.00 | 82 | 1012.0 |
| 20260507083042 | 42 | 233 | 0.0 | 0.0 | 0.00 | 0.00 | 0.00 | 79 | 1012.2 |
| 20260507082538 | 43 | 243 | 0.0 | 0.0 | 0.00 | 0.00 | 0.00 | 80 | 1012.3 |
| 20260507082034 | 43 | 243 | 0.0 | 0.0 | 0.00 | 0.00 | 0.00 | 79 | 1012.2 |
| 20260507081530 | 44 | 234 | 0.0 | 0.0 | 0.00 | 0.00 | 0.00 | 77 | 1012.3 |
| 20260507081028 | 45 | 232 | 0.0 | 0.0 | 0.00 | 0.00 | 0.00 | 73 | 1012.0 |
| 20260507080523 | 45 | 235 | 0.0 | 0.0 | 0.00 | 0.00 | 0.00 | 74 | 1012.1 |
| 20260507080020 | 45 | 250 | 1.0 | 2.0 | 0.00 | 0.00 | 0.00 | 73 | 1012.2 |
| 20260507075515 | 45 | 228 | 0.0 | 0.0 | 0.00 | 0.00 | 0.00 | 76 | 1012.1 |
| 20260507075012 | 45 | 246 | 0.0 | 0.0 | 0.00 | 0.00 | 0.00 | 75 | 1012.2 |
| 20260507074509 | 46 | 244 | 0.0 | 0.0 | 0.00 | 0.00 | 0.00 | 75 | 1012.1 |
| 20260507074008 | 46 | 228 | 0.0 | 0.0 | 0.00 | 0.00 | 0.00 | 75 | 1012.1 |
| 20260507073503 | 45 | 258 | 1.0 | 1.0 | 0.00 | 0.00 | 0.00 | 73 | 1012.2 |
| 20260507072959 | 45 | 248 | 0.0 | 0.0 | 0.00 | 0.00 | 0.00 | 76 | 1012.2 |
| 20260507072457 | 45 | 244 | 0.0 | 0.0 | 0.00 | 0.00 | 0.00 | 78 | 1012.0 |
| 20260507071954 | 45 | 248 | 0.0 | 0.0 | 0.00 | 0.00 | 0.00 | 76 | 1012.1 |
| 20260507071451 | 46 | 249 | 0.0 | 0.0 | 0.00 | 0.00 | 0.00 | 78 | 1012.1 |
| 20260507070948 | 45 | 229 | 1.0 | 1.0 | 0.00 | 0.00 | 0.00 | 75 | 1012.0 |
| 20260507070445 | 45 | 252 | 0.0 | 0.0 | 0.00 | 0.00 | 0.00 | 78 | 1012.1 |
| 20260507065942 | 45 | 236 | 0.0 | 0.0 | 0.00 | 0.00 | 0.00 | 78 | 1012.3 |
| 20260507065439 | 44 | 242 | 0.0 | 0.0 | 0.00 | 0.00 | 0.00 | 79 | 1012.4 |
| 20260507064936 | 44 | 239 | 0.0 | 0.0 | 0.00 | 0.00 | 0.00 | 80 | 1012.3 |
| 20260507064434 | 45 | 248 | 0.0 | 0.0 | 0.00 | 0.00 | 0.00 | 80 | 1012.3 |
| 20260507063932 | 45 | 231 | 0.0 | 0.0 | 0.00 | 0.00 | 0.00 | 78 | 1012.3 |
| 20260507063428 | 45 | 243 | 0.0 | 0.0 | 0.00 | 0.00 | 0.00 | 77 | 1012.0 |
| 20260507062925 | 46 | 251 | 1.0 | 1.0 | 0.00 | 0.00 | 0.00 | 76 | 1012.3 |
| 20260507062423 | 46 | 246 | 2.0 | 3.0 | 0.00 | 0.00 | 0.00 | 74 | 1012.4 |
| 20260507061920 | 46 | 257 | 1.0 | 1.0 | 0.00 | 0.00 | 0.00 | 73 | 1012.1 |
| 20260507061418 | 46 | 245 | 0.0 | 0.0 | 0.00 | 0.00 | 0.00 | 76 | 1012.4 |
| 20260507060916 | 46 | 251 | 1.0 | 2.0 | 0.00 | 0.00 | 0.00 | 75 | 1012.4 |
| 20260507060412 | 46 | 246 | 0.0 | 0.0 | 0.00 | 0.00 | 0.00 | 78 | 1012.6 |
| 20260507055909 | 47 | 243 | 0.0 | 0.0 | 0.00 | 0.00 | 0.00 | 75 | 1012.5 |
| 20260507055404 | 47 | 248 | 0.0 | 0.0 | 0.00 | 0.00 | 0.00 | 74 | 1012.3 |
| 20260507054901 | 48 | 222 | 3.0 | 4.0 | 0.00 | 0.00 | 0.00 | 72 | 1012.3 |
| 20260507054357 | 48 | 241 | 1.0 | 1.0 | 0.00 | 0.00 | 0.00 | 70 | 1012.3 |
| 20260507053855 | 48 | 350 | 5.0 | 7.0 | 0.00 | 0.00 | 0.00 | 69 | 1012.3 |
| 20260507053352 | 48 | 297 | 3.0 | 4.0 | 0.00 | 0.00 | 0.00 | 69 | 1012.2 |
| 20260507052851 | 48 | 326 | 2.0 | 3.0 | 0.00 | 0.00 | 0.00 | 69 | 1012.4 |
| 20260507052347 | 48 | 253 | 0.0 | 2.0 | 0.00 | 0.00 | 0.00 | 74 | 1012.5 |
| 20260507051845 | 48 | 237 | 0.0 | 0.0 | 0.00 | 0.00 | 0.00 | 73 | 1012.4 |
| 20260507051343 | 48 | 263 | 1.0 | 3.0 | 0.00 | 0.00 | 0.00 | 72 | 1012.4 |
| 20260507050839 | 48 | 232 | 0.0 | 1.0 | 0.00 | 0.00 | 0.00 | 71 | 1012.5 |
| 20260507050336 | 48 | 254 | 1.0 | 2.0 | 0.00 | 0.00 | 0.00 | 72 | 1012.5 |
| 20260507045833 | 48 | 243 | 0.0 | 0.0 | 0.00 | 0.00 | 0.00 | 75 | 1012.4 |
| 20260507045329 | 48 | 253 | 1.0 | 2.0 | 0.00 | 0.00 | 0.00 | 74 | 1012.5 |
| 20260507044826 | 48 | 250 | 0.0 | 0.0 | 0.00 | 0.00 | 0.00 | 75 | 1012.4 |
| 20260507044323 | 48 | 265 | 3.0 | 3.0 | 0.00 | 0.00 | 0.00 | 71 | 1012.6 |
| 20260507043819 | 48 | 268 | 4.0 | 4.0 | 0.00 | 0.00 | 0.00 | 71 | 1012.8 |
| 20260507043316 | 49 | 229 | 2.0 | 2.0 | 0.00 | 0.00 | 0.00 | 67 | 1012.7 |
| 20260507042812 | 49 | 257 | 2.0 | 3.0 | 0.00 | 0.00 | 0.00 | 69 | 1012.5 |
| 20260507042307 | 49 | 249 | 1.0 | 2.0 | 0.00 | 0.00 | 0.00 | 67 | 1012.4 |
| 20260507041805 | 49 | 203 | 4.0 | 6.0 | 0.00 | 0.00 | 0.00 | 68 | 1012.1 |
| 20260507041301 | 49 | 223 | 1.0 | 1.0 | 0.00 | 0.00 | 0.00 | 67 | 1012.3 |
| 20260507040758 | 49 | 279 | 3.0 | 3.0 | 0.00 | 0.00 | 0.00 | 70 | 1012.4 |
| 20260507040254 | 49 | 253 | 1.0 | 2.0 | 0.00 | 0.00 | 0.00 | 69 | 1012.1 |
| 20260507035751 | 49 | 284 | 3.0 | 3.0 | 0.00 | 0.25 | 0.25 | 68 | 1012.3 |
| 20260507035246 | 50 | 256 | 0.0 | 1.0 | 0.00 | 0.25 | 0.25 | 67 | 1012.4 |
| 20260507034744 | 50 | 292 | 2.0 | 2.0 | 0.00 | 0.25 | 0.25 | 65 | 1012.2 |
| 20260507034240 | 50 | 259 | 1.0 | 1.0 | 0.00 | 0.25 | 0.25 | 67 | 1012.3 |
| 20260507033739 | 50 | 268 | 2.0 | 2.0 | 0.00 | 0.25 | 0.25 | 65 | 1012.1 |
| 20260507033236 | 50 | 259 | 0.0 | 1.0 | 0.00 | 0.25 | 0.25 | 67 | 1012.0 |
| 20260507032733 | 50 | 254 | 0.0 | 0.0 | 0.00 | 0.25 | 0.25 | 66 | 1011.9 |
| 20260507032229 | 50 | 253 | 5.0 | 6.0 | 0.00 | 0.25 | 0.25 | 67 | 1012.1 |
| 20260507031726 | 50 | 265 | 5.0 | 7.0 | 0.00 | 0.25 | 0.25 | 66 | 1012.0 |
| 20260507031223 | 50 | 272 | 3.0 | 3.0 | 0.00 | 0.25 | 0.25 | 68 | 1012.1 |
| 20260507030720 | 50 | 255 | 1.0 | 2.0 | 0.00 | 0.25 | 0.25 | 73 | 1012.0 |
| 20260507030217 | 50 | 261 | 4.0 | 7.0 | 0.00 | 0.25 | 0.25 | 78 | 1011.9 |
| 20260507025714 | 51 | 298 | 2.0 | 2.0 | 0.00 | 0.25 | 0.25 | 84 | 1012.0 |
| 20260507025211 | 51 | 274 | 2.0 | 2.0 | 0.00 | 0.25 | 0.25 | 83 | 1011.7 |
| 20260507024709 | 51 | 249 | 2.0 | 3.0 | 0.00 | 0.25 | 0.25 | 84 | 1011.8 |
| 20260507024206 | 51 | 259 | 4.0 | 4.0 | 0.00 | 0.25 | 0.25 | 83 | 1011.7 |
| 20260507023701 | 51 | 328 | 5.0 | 6.0 | 0.00 | 0.25 | 0.25 | 83 | 1011.5 |
| 20260507023159 | 51 | 254 | 1.0 | 2.0 | 0.00 | 0.25 | 0.25 | 83 | 1011.4 |
| 20260507022656 | 51 | 241 | 0.0 | 1.0 | 0.00 | 0.25 | 0.25 | 83 | 1011.5 |
| 20260507022152 | 51 | 292 | 2.0 | 3.0 | 0.00 | 0.25 | 0.25 | 83 | 1011.8 |
| 20260507021648 | 51 | 245 | 0.0 | 1.0 | 0.00 | 0.25 | 0.25 | 83 | 1011.7 |
| 20260507021143 | 51 | 264 | 1.0 | 2.0 | 0.00 | 0.25 | 0.25 | 83 | 1011.7 |
| 20260507020642 | 51 | 247 | 0.0 | 0.0 | 0.00 | 0.25 | 0.25 | 83 | 1011.6 |
| 20260507020138 | 51 | 235 | 0.0 | 0.0 | 0.00 | 0.25 | 0.25 | 84 | 1011.6 |
| 20260507015637 | 51 | 246 | 0.0 | 0.0 | 0.00 | 0.25 | 0.25 | 83 | 1012.0 |
| 20260507015133 | 51 | 267 | 3.0 | 4.0 | 0.00 | 0.25 | 0.25 | 83 | 1012.0 |
| 20260507014630 | 51 | 288 | 1.0 | 2.0 | 0.00 | 0.25 | 0.25 | 86 | 1011.9 |
| 20260507014126 | 51 | 254 | 0.0 | 0.0 | 0.00 | 0.25 | 0.25 | 86 | 1012.0 |
| 20260507013623 | 51 | 282 | 2.0 | 2.0 | 0.00 | 0.25 | 0.25 | 85 | 1012.1 |
| 20260507013120 | 51 | 238 | 0.0 | 0.0 | 0.00 | 0.25 | 0.25 | 85 | 1011.9 |
| 20260507012617 | 52 | 259 | 0.0 | 1.0 | 0.00 | 0.25 | 0.25 | 88 | 1012.0 |
| 20260507012112 | 51 | 259 | 0.0 | 0.0 | 0.00 | 0.25 | 0.25 | 90 | 1011.9 |
| 20260507011611 | 51 | 252 | 0.0 | 0.0 | 0.00 | 0.25 | 0.25 | 91 | 1012.0 |
| 20260507011107 | 52 | 233 | 0.0 | 0.0 | 0.00 | 0.25 | 0.25 | 94 | 1012.0 |
| 20260507010602 | 52 | 249 | 0.0 | 0.0 | 0.00 | 0.25 | 0.25 | 92 | 1011.8 |
| 20260507010058 | 52 | 249 | 0.0 | 0.0 | 0.00 | 0.25 | 0.25 | 92 | 1011.7 |
| 20260507005556 | 52 | 253 | 0.0 | 0.0 | 0.00 | 0.25 | 0.25 | 92 | 1011.7 |
| 20260507005051 | 52 | 266 | 2.0 | 2.0 | 0.00 | 0.25 | 0.25 | 92 | 1012.0 |
| 20260507004549 | 52 | 251 | 0.0 | 0.0 | 0.00 | 0.25 | 0.25 | 92 | 1011.9 |
| 20260507004046 | 52 | 184 | 0.0 | 0.0 | 0.00 | 0.25 | 0.25 | 92 | 1012.1 |
| 20260507003542 | 52 | 249 | 0.0 | 0.0 | 0.00 | 0.25 | 0.25 | 91 | 1011.8 |
| 20260507003037 | 52 | 267 | 0.0 | 1.0 | 0.00 | 0.25 | 0.25 | 91 | 1011.6 |
| 20260507002534 | 52 | 257 | 1.0 | 2.0 | 0.00 | 0.25 | 0.25 | 91 | 1011.4 |
| 20260507002030 | 53 | 254 | 3.0 | 4.0 | 0.00 | 0.25 | 0.25 | 91 | 1011.4 |
| 20260507001527 | 53 | 270 | 2.0 | 2.0 | 0.00 | 0.25 | 0.25 | 91 | 1011.3 |
| 20260507001025 | 53 | 241 | 0.0 | 0.0 | 0.00 | 0.25 | 0.25 | 91 | 1011.3 |
| 20260507000520 | 53 | 245 | 0.0 | 0.0 | 0.00 | 0.25 | 0.25 | 91 | 1010.8 |
| 20260507000016 | 53 | 240 | 2.0 | 2.0 | 0.00 | 0.25 | 0.25 | 91 | 1010.9 |
| 20260506235514 | 53 | 233 | 2.0 | 2.0 | 0.00 | 0.25 | 0.25 | 90 | 1010.8 |
| 20260506235009 | 53 | 252 | 1.0 | 2.0 | 0.00 | 0.25 | 0.25 | 90 | 1010.7 |
| 20260506234507 | 53 | 249 | 0.0 | 0.0 | 0.00 | 0.25 | 0.25 | 91 | 1010.7 |
| 20260506234004 | 53 | 242 | 0.0 | 1.0 | 0.00 | 0.25 | 0.25 | 90 | 1010.3 |
| 20260506233500 | 53 | 260 | 1.0 | 1.0 | 0.00 | 0.25 | 0.25 | 90 | 1010.4 |
| 20260506232956 | 53 | 248 | 1.0 | 3.0 | 0.00 | 0.25 | 0.25 | 90 | 1010.2 |
| 20260506232453 | 54 | 236 | 2.0 | 2.0 | 0.00 | 0.25 | 0.25 | 90 | 1010.2 |
| 20260506231944 | 54 | 264 | 1.0 | 1.0 | 0.00 | 0.25 | 0.25 | 90 | 1010.1 |
| 20260506231441 | 54 | 242 | 1.0 | 1.0 | 0.00 | 0.25 | 0.25 | 90 | 1010.1 |
| 20260506230938 | 54 | 242 | 2.0 | 2.0 | 0.00 | 0.25 | 0.25 | 90 | 1009.9 |
| 20260506230434 | 55 | 247 | 1.0 | 1.0 | 0.00 | 0.25 | 0.25 | 90 | 1010.1 |
| 20260506225931 | 55 | 258 | 3.0 | 4.0 | 0.00 | 0.25 | 0.25 | 89 | 1010.3 |
| 20260506225429 | 55 | 280 | 4.0 | 4.0 | 0.00 | 0.25 | 0.25 | 89 | 1010.1 |
| 20260506224925 | 55 | 332 | 1.0 | 1.0 | 0.00 | 0.25 | 0.25 | 89 | 1010.1 |
| 20260506224422 | 56 | 273 | 4.0 | 4.0 | 0.00 | 0.25 | 0.25 | 89 | 1009.7 |
| 20260506223918 | 56 | 251 | 1.0 | 1.0 | 0.00 | 0.25 | 0.25 | 88 | 1009.7 |
| 20260506223414 | 56 | 260 | 4.0 | 4.0 | 0.00 | 0.25 | 0.25 | 88 | 1009.7 |
| 20260506222912 | 57 | 249 | 0.0 | 0.0 | 0.00 | 0.25 | 0.25 | 89 | 1009.6 |
| 20260506222409 | 57 | 246 | 0.0 | 1.0 | 0.00 | 0.25 | 0.25 | 89 | 1009.5 |
| 20260506221906 | 57 | 262 | 4.0 | 6.0 | 0.00 | 0.25 | 0.25 | 88 | 1009.4 |
| 20260506221402 | 57 | 260 | 4.0 | 4.0 | 0.00 | 0.25 | 0.25 | 87 | 1009.3 |
| 20260506220900 | 57 | 270 | 3.0 | 3.0 | 0.00 | 0.25 | 0.25 | 87 | 1009.4 |
| 20260506220355 | 57 | 248 | 0.0 | 1.0 | 0.00 | 0.25 | 0.25 | 89 | 1009.2 |
| 20260506215853 | 57 | 255 | 4.0 | 6.0 | 0.00 | 0.25 | 0.25 | 89 | 1009.2 |
| 20260506215348 | 58 | 222 | 1.0 | 2.0 | 0.00 | 0.25 | 0.25 | 89 | 1009.3 |
| 20260506214844 | 58 | 278 | 3.0 | 3.0 | 0.00 | 0.25 | 0.25 | 90 | 1009.1 |
| 20260506214341 | 58 | 270 | 4.0 | 4.0 | 0.00 | 0.25 | 0.25 | 89 | 1008.9 |
| 20260506213839 | 58 | 285 | 5.0 | 7.0 | 0.00 | 0.25 | 0.25 | 89 | 1008.8 |
| 20260506213336 | 58 | 263 | 5.0 | 7.0 | 0.00 | 0.25 | 0.25 | 89 | 1008.8 |
| 20260506212833 | 59 | 243 | 5.0 | 8.0 | 0.00 | 0.25 | 0.25 | 89 | 1008.6 |
| 20260506212329 | 59 | 262 | 3.0 | 4.0 | 0.00 | 0.25 | 0.25 | 89 | 1008.5 |
| 20260506211824 | 59 | 264 | 4.0 | 4.0 | 0.00 | 0.25 | 0.25 | 90 | 1008.3 |
| 20260506211320 | 59 | 267 | 3.0 | 3.0 | 0.00 | 0.25 | 0.25 | 90 | 1008.4 |
| 20260506210818 | 59 | 272 | 4.0 | 4.0 | 0.00 | 0.25 | 0.25 | 90 | 1008.4 |
| 20260506210314 | 59 | 261 | 5.0 | 6.0 | 0.00 | 0.25 | 0.25 | 89 | 1008.2 |
| 20260506205812 | 59 | 239 | 5.0 | 7.0 | 0.00 | 0.25 | 0.25 | 90 | 1008.2 |
| 20260506205307 | 59 | 255 | 4.0 | 6.0 | 0.00 | 0.25 | 0.25 | 90 | 1008.1 |
| 20260506204804 | 59 | 266 | 5.0 | 6.0 | 0.00 | 0.25 | 0.25 | 91 | 1008.1 |
| 20260506204302 | 59 | 266 | 5.0 | 6.0 | 0.00 | 0.25 | 0.25 | 92 | 1008.2 |
| 20260506203759 | 59 | 260 | 4.0 | 6.0 | 0.00 | 0.25 | 0.25 | 92 | 1008.1 |
| 20260506203257 | 60 | 241 | 4.0 | 4.0 | 0.00 | 0.25 | 0.25 | 93 | 1008.0 |
| 20260506202754 | 60 | 237 | 2.0 | 3.0 | 0.00 | 0.25 | 0.25 | 94 | 1008.1 |
| 20260506202251 | 60 | 264 | 3.0 | 3.0 | 0.00 | 0.25 | 0.25 | 93 | 1008.0 |
| 20260506201747 | 60 | 278 | 4.0 | 4.0 | 0.00 | 0.25 | 0.25 | 93 | 1007.9 |
| 20260506201243 | 60 | 252 | 4.0 | 4.0 | 0.00 | 0.25 | 0.25 | 93 | 1007.8 |
| 20260506200741 | 61 | 266 | 2.0 | 2.0 | 0.00 | 0.25 | 0.25 | 94 | 1007.6 |
| 20260506200237 | 61 | 264 | 4.0 | 4.0 | 0.00 | 0.25 | 0.25 | 95 | 1007.6 |
| 20260506195733 | 60 | 285 | 3.0 | 3.0 | 0.00 | 0.25 | 0.25 | 95 | 1007.3 |
| 20260506195230 | 61 | 293 | 4.0 | 4.0 | 0.00 | 0.25 | 0.25 | 96 | 1007.4 |
| 20260506194727 | 61 | 238 | 0.0 | 0.0 | 0.00 | 0.25 | 0.25 | 97 | 1007.3 |
| 20260506194224 | 62 | 248 | 0.0 | 0.0 | 0.00 | 0.25 | 0.25 | 97 | 1007.1 |
| 20260506193722 | 62 | 246 | 0.0 | 0.0 | 0.00 | 0.25 | 0.25 | 98 | 1007.2 |
| 20260506193218 | 62 | 236 | 0.0 | 0.0 | 0.00 | 0.25 | 0.25 | 98 | 1007.2 |
| 20260506192715 | 62 | 246 | 0.0 | 0.0 | 0.00 | 0.25 | 0.25 | 99 | 1007.2 |
| 20260506192211 | 61 | 238 | 0.0 | 0.0 | 0.00 | 0.25 | 0.25 | 99 | 1007.1 |
| 20260506191703 | 61 | 239 | 0.0 | 0.0 | 0.00 | 0.25 | 0.25 | 99 | 1007.4 |
| 20260506191158 | 61 | 247 | 0.0 | 0.0 | 0.00 | 0.25 | 0.25 | 99 | 1007.3 |
| 20260506190656 | 61 | 238 | 0.0 | 0.0 | 0.00 | 0.25 | 0.25 | 99 | 1007.2 |
| 20260506190152 | 60 | 257 | 0.0 | 0.0 | 0.00 | 0.25 | 0.25 | 99 | 1007.2 |
| 20260506185650 | 61 | 228 | 0.0 | 0.0 | 0.00 | 0.25 | 0.25 | 99 | 1007.1 |
| 20260506185146 | 60 | 245 | 0.0 | 0.0 | 0.00 | 0.25 | 0.25 | 99 | 1007.1 |
| 20260506184639 | 59 | 224 | 0.0 | 0.0 | 0.00 | 0.25 | 0.25 | 99 | 1007.3 |
| 20260506184136 | 59 | 238 | 0.0 | 0.0 | 0.00 | 0.25 | 0.25 | 99 | 1007.3 |
| 20260506183632 | 59 | 254 | 4.0 | 6.0 | 0.00 | 0.25 | 0.25 | 99 | 1007.2 |
| 20260506183128 | 59 | 273 | 3.0 | 4.0 | 0.00 | 0.25 | 0.25 | 99 | 1007.3 |
| 20260506182626 | 59 | 239 | 0.0 | 1.0 | 0.05 | 0.25 | 0.25 | 99 | 1007.3 |
| 20260506182122 | 60 | 266 | 4.0 | 4.0 | 0.05 | 0.25 | 0.25 | 99 | 1007.4 |
| 20260506181620 | 60 | 274 | 2.0 | 3.0 | 0.00 | 0.24 | 0.24 | 99 | 1007.2 |
| 20260506181117 | 60 | 268 | 3.0 | 3.0 | 0.00 | 0.24 | 0.24 | 99 | 1007.2 |
| 20260506180614 | 60 | 258 | 2.0 | 2.0 | 0.00 | 0.24 | 0.24 | 99 | 1007.1 |
| 20260506180110 | 60 | 255 | 1.0 | 2.0 | 0.00 | 0.24 | 0.24 | 99 | 1007.3 |
| 20260506175607 | 61 | 249 | 0.0 | 1.0 | 0.00 | 0.24 | 0.24 | 99 | 1007.3 |
| 20260506175103 | 61 | 241 | 0.0 | 0.0 | 0.00 | 0.24 | 0.24 | 99 | 1007.2 |
| 20260506174602 | 61 | 237 | 0.0 | 0.0 | 0.00 | 0.24 | 0.24 | 99 | 1007.0 |
| 20260506174058 | 60 | 239 | 0.0 | 0.0 | 0.00 | 0.24 | 0.24 | 99 | 1007.2 |
| 20260506173556 | 60 | 250 | 0.0 | 0.0 | 0.00 | 0.24 | 0.24 | 99 | 1007.0 |
| 20260506173052 | 61 | 263 | 0.0 | 1.0 | 0.00 | 0.24 | 0.24 | 99 | 1007.2 |
| 20260506172550 | 62 | 212 | 1.0 | 1.0 | 0.00 | 0.24 | 0.24 | 99 | 1007.1 |
| 20260506172045 | 62 | 240 | 0.0 | 0.0 | 0.00 | 0.24 | 0.24 | 99 | 1007.0 |
| 20260506171543 | 62 | 235 | 0.0 | 0.0 | 0.00 | 0.24 | 0.24 | 99 | 1007.0 |
| 20260506171041 | 63 | 245 | 0.0 | 0.0 | 0.00 | 0.24 | 0.24 | 99 | 1006.9 |
| 20260506170538 | 63 | 241 | 0.0 | 1.0 | 0.00 | 0.24 | 0.24 | 99 | 1006.9 |
| 20260506170035 | 62 | 242 | 0.0 | 0.0 | 0.00 | 0.24 | 0.24 | 99 | 1007.0 |
| 20260506165533 | 62 | 211 | 2.0 | 3.0 | 0.00 | 0.24 | 0.24 | 99 | 1006.9 |
| 20260506165029 | 62 | 208 | 0.0 | 0.0 | 0.00 | 0.24 | 0.24 | 99 | 1007.0 |
| 20260506164526 | 62 | 258 | 2.0 | 2.0 | 0.00 | 0.24 | 0.24 | 99 | 1007.0 |
| 20260506164024 | 61 | 236 | 0.0 | 0.0 | 0.00 | 0.24 | 0.24 | 99 | 1007.0 |
| 20260506163519 | 61 | 248 | 0.0 | 1.0 | 0.00 | 0.24 | 0.24 | 99 | 1007.2 |
| 20260506163015 | 60 | 255 | 1.0 | 1.0 | 0.00 | 0.24 | 0.24 | 99 | 1007.3 |
| 20260506162512 | 60 | 255 | 0.0 | 1.0 | 0.00 | 0.24 | 0.24 | 99 | 1007.1 |
| 20260506162009 | 61 | 240 | 0.0 | 0.0 | 0.00 | 0.24 | 0.24 | 99 | 1007.1 |
| 20260506161506 | 60 | 241 | 0.0 | 0.0 | 0.00 | 0.24 | 0.24 | 99 | 1007.1 |
| 20260506161003 | 59 | 235 | 0.0 | 0.0 | 0.00 | 0.24 | 0.24 | 99 | 1007.2 |
| 20260506160501 | 59 | 226 | 0.0 | 0.0 | 0.00 | 0.24 | 0.24 | 99 | 1007.2 |
| 20260506155958 | 58 | 236 | 0.0 | 0.0 | 0.07 | 0.24 | 0.24 | 99 | 1007.4 |
| 20260506155456 | 58 | 245 | 0.0 | 0.0 | 0.07 | 0.24 | 0.24 | 99 | 1007.4 |
| 20260506153622 | 57 | 263 | 2.0 | 3.0 | 0.00 | 0.23 | 0.23 | 99 | 1007.0 |
| 20260506153119 | 57 | 268 | 5.0 | 6.0 | 0.00 | 0.23 | 0.23 | 99 | 1007.0 |
| 20260506152616 | 57 | 248 | 0.0 | 0.0 | 0.00 | 0.23 | 0.23 | 99 | 1007.1 |
| 20260506152114 | 57 | 244 | 1.0 | 2.0 | 0.00 | 0.23 | 0.23 | 99 | 1007.0 |
| 20260506151613 | 57 | 241 | 0.0 | 0.0 | 0.00 | 0.23 | 0.23 | 99 | 1006.9 |
| 20260506151109 | 57 | 247 | 0.0 | 0.0 | 0.00 | 0.23 | 0.23 | 99 | 1006.8 |
| 20260506150606 | 57 | 243 | 1.0 | 2.0 | 0.00 | 0.23 | 0.23 | 99 | 1006.6 |
| 20260506145600 | 57 | 239 | 0.0 | 0.0 | 0.00 | 0.23 | 0.23 | 99 | 1006.6 |
| 20260506145057 | 57 | 243 | 0.0 | 0.0 | 0.00 | 0.23 | 0.23 | 99 | 1006.9 |
| 20260506144554 | 57 | 237 | 0.0 | 0.0 | 0.00 | 0.23 | 0.23 | 99 | 1006.6 |
| 20260506144051 | 57 | 231 | 0.0 | 0.0 | 0.00 | 0.23 | 0.23 | 99 | 1006.8 |
| 20260506143548 | 56 | 240 | 0.0 | 0.0 | 0.00 | 0.23 | 0.23 | 99 | 1006.9 |
| 20260506143047 | 56 | 196 | 2.0 | 3.0 | 0.05 | 0.23 | 0.23 | 99 | 1006.6 |
| 20260506142544 | 56 | 221 | 0.0 | 0.0 | 0.05 | 0.23 | 0.23 | 99 | 1006.6 |
| 20260506142042 | 56 | 230 | 1.0 | 1.0 | 0.05 | 0.23 | 0.23 | 99 | 1006.6 |
| 20260506141539 | 56 | 233 | 1.0 | 1.0 | 0.00 | 0.22 | 0.22 | 99 | 1006.8 |
| 20260506141038 | 55 | 241 | 0.0 | 0.0 | 0.07 | 0.22 | 0.22 | 99 | 1006.8 |
| 20260506140535 | 56 | 239 | 0.0 | 0.0 | 0.12 | 0.22 | 0.22 | 99 | 1006.6 |
| 20260506140032 | 56 | 237 | 1.0 | 1.0 | 0.05 | 0.21 | 0.21 | 99 | 1006.9 |
| 20260506135529 | 56 | 242 | 0.0 | 0.0 | 0.00 | 0.20 | 0.20 | 99 | 1006.8 |
| 20260506135025 | 56 | 235 | 0.0 | 0.0 | 0.07 | 0.20 | 0.20 | 99 | 1006.9 |
| 20260506134521 | 56 | 235 | 0.0 | 0.0 | 0.07 | 0.20 | 0.20 | 99 | 1006.9 |
| 20260506134017 | 56 | 235 | 0.0 | 0.0 | 0.07 | 0.19 | 0.19 | 99 | 1006.8 |
| 20260506133515 | 55 | 241 | 0.0 | 0.0 | 0.07 | 0.19 | 0.19 | 99 | 1007.0 |
| 20260506133012 | 55 | 253 | 0.0 | 0.0 | 0.00 | 0.18 | 0.18 | 99 | 1006.8 |
| 20260506132509 | 55 | 228 | 0.0 | 0.0 | 0.00 | 0.18 | 0.18 | 99 | 1006.9 |
| 20260506132006 | 55 | 240 | 0.0 | 0.0 | 0.05 | 0.18 | 0.18 | 99 | 1007.0 |
| 20260506131503 | 55 | 244 | 0.0 | 0.0 | 0.05 | 0.18 | 0.18 | 99 | 1007.3 |
| 20260506130959 | 55 | 231 | 0.0 | 0.0 | 0.05 | 0.18 | 0.18 | 99 | 1006.9 |
| 20260506130456 | 55 | 231 | 2.0 | 3.0 | 0.00 | 0.17 | 0.17 | 99 | 1007.0 |
| 20260506125954 | 55 | 241 | 0.0 | 0.0 | 0.00 | 0.17 | 0.17 | 99 | 1006.8 |
| 20260506125452 | 55 | 236 | 0.0 | 0.0 | 0.00 | 0.17 | 0.17 | 99 | 1007.1 |
| 20260506124949 | 55 | 230 | 0.0 | 1.0 | 0.07 | 0.17 | 0.17 | 99 | 1007.1 |
| 20260506124447 | 55 | 237 | 0.0 | 0.0 | 0.07 | 0.17 | 0.17 | 99 | 1006.9 |
| 20260506123945 | 55 | 230 | 0.0 | 0.0 | 0.05 | 0.16 | 0.16 | 99 | 1007.2 |
| 20260506123443 | 55 | 242 | 0.0 | 0.0 | 0.05 | 0.16 | 0.16 | 99 | 1007.0 |
| 20260506122940 | 55 | 252 | 3.0 | 3.0 | 0.12 | 0.15 | 0.15 | 99 | 1007.1 |
| 20260506122437 | 55 | 242 | 0.0 | 0.0 | 0.19 | 0.15 | 0.15 | 99 | 1007.1 |
| 20260506121935 | 55 | 233 | 0.0 | 0.0 | 0.12 | 0.14 | 0.14 | 99 | 1007.3 |
| 20260506121432 | 55 | 233 | 0.0 | 0.0 | 0.12 | 0.13 | 0.13 | 99 | 1007.6 |
| 20260506120928 | 55 | 231 | 0.0 | 0.0 | 0.12 | 0.12 | 0.12 | 99 | 1007.6 |
| 20260506120426 | 55 | 224 | 0.0 | 0.0 | 0.12 | 0.11 | 0.11 | 99 | 1007.9 |
| 20260506115923 | 55 | 231 | 0.0 | 0.0 | 0.12 | 0.10 | 0.10 | 99 | 1007.8 |
| 20260506115421 | 55 | 231 | 0.0 | 0.0 | 0.14 | 0.09 | 0.09 | 99 | 1007.8 |
| 20260506114919 | 55 | 230 | 0.0 | 0.0 | 0.12 | 0.08 | 0.08 | 99 | 1008.0 |
| 20260506114416 | 55 | 230 | 0.0 | 0.0 | 0.12 | 0.08 | 0.08 | 99 | 1008.0 |
| 20260506113915 | 55 | 231 | 0.0 | 0.0 | 0.07 | 0.06 | 0.06 | 99 | 1008.1 |
| 20260506113412 | 55 | 231 | 0.0 | 0.0 | 0.07 | 0.06 | 0.06 | 99 | 1007.8 |
| 20260506112909 | 55 | 230 | 0.0 | 0.0 | 0.05 | 0.05 | 0.05 | 99 | 1007.6 |
| 20260506112407 | 55 | 230 | 0.0 | 0.0 | 0.05 | 0.05 | 0.05 | 99 | 1007.6 |
| 20260506111904 | 55 | 230 | 0.0 | 0.0 | 0.00 | 0.04 | 0.04 | 99 | 1007.2 |
| 20260506111402 | 55 | 230 | 0.0 | 0.0 | 0.00 | 0.04 | 0.04 | 99 | 1007.2 |
| 20260506110858 | 55 | 229 | 0.0 | 0.0 | 0.00 | 0.04 | 0.04 | 99 | 1007.1 |
| 20260506110355 | 55 | 229 | 0.0 | 0.0 | 0.00 | 0.04 | 0.04 | 99 | 1007.1 |
| 20260506105847 | 55 | 229 | 0.0 | 0.0 | 0.00 | 0.04 | 0.04 | 99 | 1007.2 |
| 20260506105343 | 56 | 229 | 0.0 | 0.0 | 0.07 | 0.04 | 0.04 | 99 | 1007.1 |
| 20260506104841 | 56 | 251 | 0.0 | 0.0 | 0.12 | 0.04 | 0.04 | 99 | 1007.0 |
| 20260506104338 | 56 | 233 | 0.0 | 0.0 | 0.05 | 0.03 | 0.03 | 99 | 1006.9 |
| 20260506103836 | 56 | 233 | 0.0 | 0.0 | 0.00 | 0.02 | 0.02 | 99 | 1007.0 |
| 20260506103333 | 56 | 233 | 0.0 | 0.0 | 0.00 | 0.02 | 0.02 | 99 | 1007.0 |
| 20260506102831 | 56 | 232 | 0.0 | 0.0 | 0.00 | 0.02 | 0.02 | 98 | 1007.0 |
| 20260506102329 | 56 | 232 | 0.0 | 0.0 | 0.07 | 0.02 | 0.02 | 98 | 1007.0 |
| 20260506101826 | 56 | 232 | 0.0 | 0.0 | 0.07 | 0.02 | 0.02 | 98 | 1007.0 |
| 20260506101321 | 56 | 232 | 0.0 | 0.0 | 0.00 | 0.01 | 0.01 | 97 | 1006.9 |
| 20260506100819 | 57 | 231 | 0.0 | 0.0 | 0.05 | 0.01 | 0.01 | 96 | 1006.8 |
| 20260506100318 | 57 | 232 | 0.0 | 0.0 | 0.05 | 0.01 | 0.01 | 95 | 1006.8 |
| 20260506095816 | 57 | 231 | 0.0 | 0.0 | 0.00 | 0.00 | 0.00 | 95 | 1006.6 |